Location: Zagreb
(45.8000°N, 16.0000°E)
Time: 00:04:42
(UTC+01:00)

NUDT-PHONESAT - Pass Details

Date: 05 November 2020
Orbit: 481 x 500 km, 97.4° (Epoch: 30 November)

Event Time Altitude Azimuth Distance (km) Brightness Sun altitude
Rises 17:55:38 0° 175° (S) 2,585 ? -14.1°
Reaches altitude 10° 17:57:43 10° 180° (S) 1,706 ? -14.5°
Maximum altitude 18:01:21 57° 260° (W) 596 ? -15.1°
Drops below altitude 10° 18:05:00 10° 340° (NNW) 1,717 ? -15.7°
Sets 18:07:07 0° 344° (NNW) 2,603 ? -16.1°
